Вернуться в каталог

STARLINK-34448

АктивенСвязьVLEO
NORAD 64291·PAYLOAD·🇺🇸 United States

Запущен Jun 8, 2025 с Vandenberg Space Force Base

Loading…

Ближайшие Пролёты (ближайшие 24 часа)

TLE

СвежийSource: CelesTrak SupGP

Эпоха: Sep 15, 2026, 02:24 UTC

1 64291C 25123A   26258.10048611 -.00046218  00000+0 -16074-2 0  2589
2 64291  69.9996  75.0619 0003651 271.0136 187.0786 15.29608156    16

Отслеживайте STARLINK-34448 в реальном времени с AllMySat

Download on the App Store